Dewpoint
8 10 9 9 7 7 8 8 8 8 7 7 8 5 5 6 5 4 4 -1 1 2 2 2 4 5 3 2 4 4 5 4 4 -0 -6 -7 -2 -0
7 9 9 7 7 7 8 7 8 8 8 7 8 5 4 5 5 4 4 4 2 3 4 2 2 4 5 3 1 3 3 3 1 3 1 -4 -9 -5
6 7 7 6 7 7 6 6 7 8 8 8 7 6 5 5 5 4 4 4 5 4 3 4 3 1 3 5 3 0 1 2 2 2 3 0 -3 -9
7 6 7 8 7 7 7 7 7 8 7 7 7 7 5 4 5 5 5 5 5 5 5 4 4 4 0 2 3 4 2 -2 -0 1 2 3 1 -1
6 7 5 7 7 7 7 6 6 7 7 6 6 5 5 5 5 6 6 6 5 5 5 6 4 4 4 2 -0 -1 3 1 -2 -2 1 2 2 1
5 6 5 6 7 7 7 7 6 6 6 6 6 5 5 5 5 6 6 6 5 6 6 6 6 4 5 4 3 2 -1 1 2 -1 -2 -0 0 1
6 5 4 5 6 6 6 6 7 5 6 6 6 5 4 4 5 5 6 6 7 6 6 6 6 6 6 5 5 4 2 -0 0 1 -1 -1 -1 -0
6 6 6 5 5 4 5 4 5 5 5 5 5 5 5 5 6 6 5 6 6 7 6 6 7 7 6 5 5 5 3 1 1 0 0 0 -0 -1
7 7 7 6 5 4 5 5 5 5 5 5 5 5 5 5 6 5 5 7 7 7 7 7 6 6 7 6 5 5 4 2 1 2 1 1 1 1
7 7 7 6 5 5 4 4 5 5 5 4 5 5 6 5 5 5 5 7 6 7 7 7 7 7 6 5 5 4 3 3 2 2 2 2 1 1
7 7 6 6 6 5 5 5 5 5 6 6 6 6 6 6 5 6 6 6 7 6 6 6 6 7 6 6 5 5 4 4 3 2 2 1 2 2
6 6 6 5 4 3 4 5 5 5 5 5 5 5 4 5 5 6 6 7 7 6 6 6 5 6 6 6 4 3 3 4 3 3 2 1 1 2
5 6 6 5 3 4 6 6 5 4 5 4 5 4 4 5 5 6 6 6 6 6 6 5 5 6 6 5 3 3 3 3 2 3 2 1 1 1
5 5 5 5 3 4 4 5 5 6 5 5 4 4 4 4 4 5 6 6 6 6 6 5 4 4 4 3 3 3 2 2 3 2 2 3 3 4
3 4 4 5 4 4 4 5 4 4 4 5 5 5 3 5 5 6 6 6 6 6 6 6 5 4 4 4 5 4 3 3 3 3 4 4 4 4
3 3 3 4 4 4 4 5 5 4 5 5 5 6 4 5 5 6 6 6 6 6 6 6 6 5 4 5 5 4 4 3 3 2 4 4 4 3
2 1 2 3 4 4 4 4 5 5 4 4 5 5 5 5 5 5 6 5 6 6 5 5 4 4 4 4 5 4 4 3 3 3 3 3 3 3
1 1 2 2 3 3 4 4 4 5 5 5 5 5 5 5 5 5 5 6 5 5 5 5 5 4 4 4 4 4 4 4 3 3 3 3 3 2
-1 0 1 1 1 2 3 3 3 3 4 4 5 5 5 5 5 5 5 5 5 5 5 5 5 5 5 4 3 4 3 3 3 3 3 2 2 2
-3 -1 -0 0 1 1 1 2 3 3 3 4 4 4 4 5 5 5 5 5 4 5 5 5 5 5 4 5 4 4 3 2 2 3 2 2 1 0
-5 -4 -2 -1 -0 -0 -0 1 1 2 3 3 3 4 4 4 4 4 4 4 4 4 4 4 4 4 5 4 4 4 3 3 3 3 2 1 -0 -0
-5 -5 -4 -3 -2 -2 -1 -1 -0 1 2 2 3 3 3 4 3 4 4 4 4 4 4 4 4 4 4 4 4 3 3 3 2 1 0 0 -0 -0
-7 -6 -5 -4 -4 -3 -2 -1 -1 0 1 1 2 2 2 3 3 3 3 3 3 3 3 4 4 4 3 3 3 3 3 2 2 -0 -1 -2 -1 -1
Wind_Speed
22 26 26 21 21 18 20 19 17 15 16 12 9 13 13 13 12 12 12 9 7 8 10 11 13 15 15 16 15 13 14 11 10 6 5 7 9 9
25 22 25 23 23 22 22 22 21 21 18 14 13 15 18 17 15 14 13 11 10 9 10 11 13 16 16 17 18 17 15 14 11 11 9 8 9 11
27 26 27 26 26 25 24 22 24 23 20 18 20 21 23 21 19 17 18 17 15 13 13 12 12 12 14 16 17 20 21 18 15 13 11 10 9 10
33 31 29 29 28 28 27 27 25 25 23 20 17 20 25 21 20 21 21 21 21 20 18 16 14 14 13 14 16 18 20 20 20 17 15 14 12 11
30 32 33 32 31 31 29 26 26 25 26 22 21 19 22 22 21 22 22 24 25 25 23 21 19 16 15 15 14 15 19 21 21 20 19 18 17 14
26 29 33 35 34 30 26 27 26 25 25 25 25 25 24 24 26 27 28 27 25 24 23 24 22 22 20 19 17 16 17 18 20 22 22 21 20 18
24 24 22 25 28 28 26 28 28 28 27 27 27 27 27 27 28 27 31 29 29 29 28 26 26 25 25 23 21 19 19 18 18 21 22 22 21 21
28 26 24 22 24 29 30 32 30 31 30 28 28 29 30 31 32 29 29 28 28 26 23 28 26 28 27 25 22 21 20 19 18 19 22 23 23 22
25 27 25 24 21 23 25 26 27 27 27 27 30 31 30 29 29 29 31 25 27 26 25 27 27 25 25 24 23 24 22 19 19 20 21 22 23 24
23 24 28 25 23 22 26 29 29 29 29 30 33 33 32 30 28 31 29 31 28 26 25 27 26 23 22 23 23 22 21 19 20 21 22 23 23 23
24 25 26 26 26 25 28 31 34 35 33 33 34 35 34 31 31 30 33 29 31 29 26 27 30 28 28 25 24 24 24 24 22 22 22 23 24 23
28 29 28 25 25 28 31 33 36 36 33 34 34 33 31 31 31 33 32 29 31 30 32 30 29 27 26 26 24 24 23 23 23 22 22 22 21 22
29 27 30 29 28 31 32 33 34 32 32 31 30 29 30 31 29 30 31 32 30 30 30 17 20 19 22 20 20 20 19 17 17 20 21 21 21 22
27 29 30 30 32 33 34 30 26 29 28 30 30 31 30 30 30 31 30 30 29 30 26 25 21 19 20 22 24 22 22 23 22 20 20 19 21 22
26 26 31 32 28 31 28 25 24 28 29 32 35 34 29 28 30 29 26 27 28 30 29 28 27 27 24 23 23 24 24 23 21 21 21 21 20 21
20 24 28 31 33 36 31 26 27 28 30 32 34 35 33 30 29 30 29 28 30 29 34 34 33 30 27 25 25 25 23 21 18 18 20 20 19 18
21 26 29 30 29 33 32 33 31 29 32 32 33 32 35 33 32 34 32 34 36 36 32 31 29 30 31 29 28 28 26 24 22 22 22 23 23 22
21 21 21 21 22 22 25 30 33 35 37 35 35 37 35 33 34 36 35 37 35 35 34 34 34 34 34 33 33 33 29 27 25 25 25 26 27 24
21 21 22 22 22 23 23 25 25 25 26 32 33 36 36 33 33 35 36 38 37 35 37 36 39 39 36 41 37 35 33 30 28 30 30 31 29 25
22 23 22 23 25 25 24 26 28 29 28 26 27 29 31 32 34 36 35 37 36 42 45 41 40 43 43 44 39 38 32 31 32 32 34 34 30 27
20 23 25 27 27 26 26 28 30 30 29 31 32 28 30 30 32 33 38 35 37 38 40 47 43 43 45 41 40 39 34 33 33 36 37 37 34 32
18 21 23 25 26 27 27 27 28 31 31 31 33 32 32 34 34 35 35 35 38 39 42 41 45 49 45 43 45 42 38 35 35 36 36 37 35 35
17 19 20 21 22 24 26 27 28 29 30 31 29 28 26 29 32 36 36 37 38 39 41 43 42 42 40 42 45 45 43 41 39 39 36 35 35 30
Wind_Direction
251 238 238 250 257 263 265 262 265 270 274 282 280 288 296 295 285 288 293 302 292 294 288 285 271 267 251 252 256 265 278 269 282 289 274 260 246 242
246 238 236 249 255 258 258 260 262 264 268 273 272 280 293 295 281 270 273 286 283 297 301 297 286 274 258 250 250 257 267 275 287 262 269 267 254 243
242 242 241 246 252 257 254 261 261 259 260 266 269 279 288 286 282 274 265 270 278 283 287 292 298 290 273 258 257 257 262 265 269 270 263 264 263 252
239 241 243 246 249 254 258 258 262 261 263 263 268 277 284 282 280 280 269 265 271 276 277 277 285 289 279 270 268 266 263 262 260 257 259 262 261 260
241 243 244 248 251 254 253 255 258 258 264 265 277 279 282 278 280 277 274 271 267 272 274 271 271 276 277 274 274 273 265 259 260 256 254 257 257 258
245 247 250 249 251 250 247 254 257 263 264 263 268 274 275 275 275 275 279 281 278 277 273 269 266 264 268 268 271 274 274 262 255 255 253 252 254 255
244 244 244 251 253 247 247 252 254 260 263 264 265 267 270 270 270 278 282 283 282 281 277 263 266 264 263 264 267 272 272 268 258 254 252 251 250 250
244 245 244 248 259 253 253 253 257 258 260 259 262 264 266 270 274 276 280 282 282 286 282 269 264 266 260 259 263 265 261 261 264 258 254 252 249 247
246 245 245 246 247 255 260 254 253 253 255 261 263 264 269 273 276 277 277 273 283 279 279 268 266 268 259 251 256 259 257 260 264 263 258 253 250 248
244 244 237 236 238 246 256 260 253 253 256 258 262 269 272 272 270 278 280 278 276 274 268 267 263 261 248 251 259 250 250 261 266 264 261 255 250 248
241 240 241 243 252 256 253 257 258 258 255 257 262 268 270 269 267 272 274 267 266 265 268 271 264 258 252 252 246 251 257 262 261 262 261 257 252 250
247 245 245 245 248 257 260 259 257 260 264 267 262 264 268 267 263 259 264 265 264 273 264 269 264 256 255 241 250 261 264 260 260 261 260 257 251 247
250 250 249 248 252 259 268 271 257 260 262 265 265 264 264 260 258 258 259 255 259 259 261 260 250 243 245 254 264 263 256 260 262 256 251 249 246 244
253 254 253 256 260 260 264 270 258 254 257 260 260 266 261 258 258 262 261 261 260 253 248 240 249 247 246 259 257 256 266 269 263 253 249 248 245 244
255 255 254 255 261 262 268 258 252 250 251 254 259 261 253 261 261 263 263 253 253 245 240 240 249 248 249 251 256 255 260 264 259 257 256 253 251 248
251 257 255 257 260 259 261 258 246 249 252 256 259 258 257 261 255 261 258 258 254 249 241 242 244 240 248 248 249 249 254 254 267 268 259 249 238 222
259 261 260 262 260 254 257 257 250 245 249 256 261 262 256 254 255 257 256 257 258 250 247 240 247 252 250 247 246 252 252 259 265 261 257 245 227 222
260 261 255 261 258 253 258 261 261 258 254 258 257 265 261 262 259 252 253 257 256 249 249 245 245 243 249 244 243 247 249 252 255 254 248 234 227 225
257 259 259 259 264 263 261 263 269 261 266 262 260 260 267 258 263 258 259 252 254 253 252 248 249 246 244 243 247 245 245 250 248 248 239 230 225 224
258 252 253 257 259 260 258 257 261 268 269 269 264 263 260 261 267 258 258 261 265 252 252 243 247 243 247 245 256 248 247 248 247 245 234 225 222 220
261 256 251 252 255 258 259 260 262 262 259 265 266 261 264 264 262 263 264 262 261 263 261 249 248 254 245 249 243 241 247 247 244 242 233 220 217 218
265 264 261 260 259 260 261 261 263 262 263 259 265 266 261 261 264 262 262 264 266 267 262 257 258 253 241 238 240 239 243 244 241 231 225 227 223 220
273 271 266 265 263 262 263 264 265 263 261 264 263 259 267 271 270 270 266 263 265 269 267 258 252 250 246 244 241 241 240 237 233 217 213 218 225 226
Height
1588 1589 1593 1595 1597 1598 1599 1600 1602 1602 1603 1603 1602 1601 1601 1601 1601 1601 1601 1600 1599 1598 1598 1598 1598 1597 1598 1599 1599 1600 1598 1598 1597 1597 1597 1597 1598 1598
1583 1585 1588 1590 1591 1593 1595 1596 1597 1598 1598 1600 1598 1597 1597 1598 1598 1598 1598 1598 1597 1597 1596 1595 1595 1594 1594 1595 1596 1596 1596 1596 1595 1595 1595 1595 1595 1596
1578 1580 1582 1584 1586 1587 1589 1591 1591 1592 1593 1594 1593 1593 1593 1593 1593 1594 1594 1594 1594 1594 1594 1593 1592 1591 1590 1591 1592 1592 1592 1593 1593 1593 1593 1593 1593 1594
1572 1574 1576 1578 1580 1582 1583 1584 1586 1587 1588 1588 1589 1589 1588 1589 1589 1589 1589 1589 1589 1589 1590 1589 1589 1588 1587 1587 1587 1587 1587 1588 1589 1590 1591 1591 1591 1592
1565 1567 1570 1572 1573 1575 1577 1578 1580 1581 1582 1582 1583 1584 1583 1583 1583 1584 1584 1583 1584 1584 1585 1585 1585 1585 1584 1584 1583 1583 1583 1583 1584 1585 1586 1587 1588 1589
1559 1561 1563 1565 1566 1569 1570 1572 1574 1575 1576 1577 1578 1579 1579 1580 1578 1579 1579 1578 1578 1578 1578 1579 1579 1580 1580 1580 1580 1579 1579 1578 1579 1580 1581 1582 1583 1585
1553 1554 1556 1558 1560 1562 1564 1565 1567 1569 1570 1571 1572 1573 1573 1574 1574 1574 1573 1573 1572 1571 1571 1572 1572 1573 1574 1575 1575 1575 1574 1574 1574 1575 1576 1577 1578 1580
1546 1548 1550 1552 1554 1556 1558 1560 1561 1563 1564 1564 1565 1565 1567 1567 1568 1567 1567 1566 1565 1564 1563 1565 1565 1565 1566 1568 1569 1569 1569 1569 1569 1570 1571 1572 1573 1574
1540 1542 1544 1547 1549 1550 1551 1553 1555 1556 1558 1559 1558 1559 1560 1561 1562 1561 1561 1560 1559 1559 1558 1557 1557 1558 1559 1561 1562 1563 1564 1564 1564 1565 1565 1566 1567 1569
1534 1536 1538 1540 1543 1545 1546 1547 1548 1548 1550 1551 1551 1552 1553 1554 1554 1554 1554 1553 1553 1553 1552 1550 1550 1552 1553 1555 1556 1557 1558 1559 1559 1559 1560 1560 1561 1562
1528 1530 1532 1534 1537 1539 1539 1539 1539 1540 1542 1543 1543 1544 1545 1546 1547 1547 1546 1546 1544 1546 1547 1546 1545 1546 1548 1549 1550 1551 1552 1553 1553 1554 1554 1554 1555 1556
1521 1523 1525 1527 1530 1531 1531 1531 1530 1533 1534 1534 1536 1536 1537 1538 1539 1539 1539 1538 1539 1539 1540 1541 1539 1541 1541 1542 1544 1545 1546 1546 1547 1548 1548 1549 1550 1550
1514 1514 1517 1520 1521 1522 1522 1522 1522 1526 1526 1527 1527 1528 1529 1529 1530 1531 1531 1532 1532 1532 1534 1534 1534 1535 1536 1537 1539 1540 1540 1541 1541 1541 1542 1543 1544 1544
1506 1509 1510 1512 1513 1513 1514 1514 1515 1518 1519 1519 1519 1520 1521 1522 1523 1524 1524 1525 1525 1526 1528 1529 1530 1531 1532 1533 1534 1535 1536 1536 1536 1537 1537 1537 1538 1539
1499 1500 1502 1503 1503 1504 1505 1507 1509 1510 1511 1511 1511 1512 1514 1516 1516 1517 1517 1517 1518 1517 1521 1522 1524 1525 1526 1527 1528 1529 1530 1530 1531 1531 1532 1532 1533 1534
1491 1491 1493 1494 1495 1496 1497 1499 1501 1502 1502 1503 1503 1504 1506 1507 1508 1510 1510 1510 1511 1512 1514 1515 1517 1518 1520 1521 1522 1523 1524 1525 1525 1526 1526 1527 1528 1529
1483 1485 1486 1487 1487 1488 1489 1491 1493 1494 1495 1496 1496 1496 1497 1499 1500 1502 1503 1503 1503 1504 1506 1508 1509 1512 1513 1515 1515 1516 1518 1519 1521 1521 1522 1522 1523 1524
1476 1478 1478 1479 1479 1481 1482 1483 1484 1485 1486 1488 1488 1489 1490 1490 1492 1492 1494 1494 1495 1495 1498 1500 1502 1504 1505 1506 1508 1509 1511 1513 1515 1516 1516 1517 1518 1520
1469 1470 1471 1472 1472 1472 1473 1475 1475 1476 1478 1477 1479 1479 1481 1482 1484 1484 1485 1484 1485 1488 1490 1492 1493 1495 1496 1495 1499 1502 1503 1506 1508 1508 1509 1510 1512 1514
1462 1463 1463 1464 1465 1466 1466 1466 1467 1468 1468 1469 1468 1470 1471 1473 1473 1474 1475 1476 1477 1477 1478 1481 1483 1485 1485 1487 1490 1493 1495 1497 1499 1500 1501 1504 1506 1508
1455 1455 1456 1457 1456 1458 1459 1459 1459 1460 1460 1461 1461 1461 1462 1464 1464 1465 1467 1467 1468 1467 1467 1468 1472 1477 1475 1479 1479 1482 1486 1488 1490 1492 1494 1496 1498 1499
1449 1450 1449 1449 1449 1449 1449 1450 1450 1451 1451 1452 1452 1453 1454 1455 1454 1456 1456 1457 1457 1457 1457 1461 1462 1463 1464 1466 1469 1472 1475 1479 1481 1483 1487 1490 1491 1490
1443 1443 1442 1442 1443 1441 1441 1442 1442 1443 1443 1443 1443 1443 1444 1444 1445 1446 1446 1447 1448 1448 1448 1448 1450 1452 1454 1458 1460 1463 1466 1468 1471 1473 1478 1480 1484 1486